Brownsville, TX

11:45 AM CST on February 08, 2016 (GMT -0600)
Brownsville-South Padre I International

Weather History for KBRO - January, 2014

Change the Weather History Date:

Monday, January 13, 2014

  Actual Average Record
Temperature  
Mean Temperature 68 °F 61 °F  
Max Temperature 83 °F 70 °F 85 °F (2000)
Min Temperature 53 °F 51 °F 24 °F (1912)
Degree Days  
Heating Degree Days 0 6  
Month to date heating degree days 85 78  
Since 1 July heating degree days 410 297  
Cooling Degree Days 3 2  
Month to date cooling degree days 17 26  
Year to date cooling degree days 17 26  
Growing Degree Days 18 (Base 50)    
Moisture  
Dew Point 55 °F    
Average Humidity 59    
Maximum Humidity 100    
Minimum Humidity 17    
Precipitation  
Precipitation 0.00 in 0.04 in 1.62 in (1994)
Month to date precipitation 0.16 0.47  
Year to date precipitation 0.16 0.47  
Sea Level Pressure  
Sea Level Pressure 30.01 in    
Wind  
Wind Speed 11 mph (WNW)    
Max Wind Speed 22 mph    
Max Gust Speed 30 mph    
Visibility 9 miles    
Events      
T = Trace of Precipitation, MM = Missing Value Source: NWS Daily Summary

Daily Weather History Graph

Daily Weather History Graph

Search for Another Location

Airport or City:

Trip Planner

Search our weather history database for the weather conditions in past years. The results will help you decide how hot, cold, wet, or windy it might be!

Date:

Astronomy

Jan. 13, 2014 Rise Set
Actual Time 7:18 AM CST 5:58 PM CST
Civil Twilight 6:53 AM CST 6:23 PM CST
Nautical Twilight 6:25 AM CST 6:51 PM CST
Astronomical Twilight 5:57 AM CST 7:19 PM CST
Moon 4:13 PM CST (1/13) 5:09 AM CST (1/13)
Length of Visible Light 11h 30m
Length of Day
10h 40m
Waxing Gibbous, 95% of the Moon is Illuminated
Jan 13
Waxing Gibbous
Jan 15
Full
Jan 23
Last Quarter
Jan 30
New
Feb 6
First Quarter

Hourly Weather History & Observations

Time (CST) Temp. Dew Point Humidity Pressure Visibility Wind Dir Wind Speed Gust Speed Precip Events Conditions
12:53 AM 70.0 °F 66.9 °F 90% 29.91 in 10.0 mi SSW 19.6 mph - N/A   Clear
1:53 AM 69.1 °F 66.0 °F 90% 29.89 in 10.0 mi South 16.1 mph - N/A   Clear
2:53 AM 68.0 °F 64.9 °F 90% 29.88 in 10.0 mi SSW 12.7 mph - N/A   Clear
3:53 AM 66.9 °F 64.9 °F 93% 29.90 in 10.0 mi SSW 9.2 mph - N/A   Clear
4:53 AM 66.0 °F 64.0 °F 93% 29.90 in 10.0 mi SSW 11.5 mph - N/A   Clear
5:53 AM 64.0 °F 63.0 °F 96% 29.91 in 10.0 mi SSW 5.8 mph - N/A   Clear
6:53 AM 61.0 °F 61.0 °F 100% 29.92 in 1.5 mi South 4.6 mph - N/A   Clear
7:22 AM 60.8 °F 59.0 °F 94% 29.93 in 3.0 mi South 4.6 mph - N/A   Clear
7:53 AM 62.1 °F 61.0 °F 96% 29.94 in 3.0 mi South 4.6 mph - N/A   Clear
8:53 AM 66.0 °F 64.0 °F 93% 29.98 in 10.0 mi SW 10.4 mph - N/A   Clear
9:53 AM 73.0 °F 64.9 °F 76% 30.01 in 10.0 mi West 8.1 mph - N/A   Clear
10:53 AM 77.0 °F 61.0 °F 58% 30.01 in 10.0 mi NW 13.8 mph 19.6 mph N/A   Clear
11:53 AM 78.1 °F 59.0 °F 52% 30.01 in 10.0 mi NNW 17.3 mph 23.0 mph N/A   Clear
12:53 PM 78.1 °F 55.9 °F 46% 29.99 in 10.0 mi NNW 18.4 mph 25.3 mph N/A   Clear
1:53 PM 81.0 °F 50.0 °F 34% 29.99 in 10.0 mi NNW 20.7 mph 26.5 mph N/A   Clear
2:53 PM 82.9 °F 39.0 °F 21% 30.00 in 10.0 mi NNW 15.0 mph 25.3 mph N/A   Clear
3:53 PM 82.0 °F 34.0 °F 18% 30.01 in 10.0 mi NNW 13.8 mph 25.3 mph N/A   Clear
4:53 PM 78.1 °F 34.0 °F 20% 30.04 in 10.0 mi North 11.5 mph 21.9 mph N/A   Clear
5:53 PM 70.0 °F 48.0 °F 46% 30.07 in 10.0 mi NNE 10.4 mph 20.7 mph N/A   Clear
6:53 PM 64.0 °F 48.9 °F 58% 30.10 in 10.0 mi NNE 8.1 mph - N/A   Clear
7:53 PM 60.1 °F 50.0 °F 69% 30.12 in 10.0 mi NNE 5.8 mph - N/A   Clear
8:53 PM 59.0 °F 51.1 °F 75% 30.15 in 10.0 mi NNE 5.8 mph - N/A   Clear
9:53 PM 59.0 °F 48.9 °F 69% 30.15 in 10.0 mi NE 6.9 mph - N/A   Clear
10:53 PM 57.9 °F 51.1 °F 78% 30.14 in 10.0 mi NE 5.8 mph - N/A   Clear
11:53 PM 55.0 °F 48.9 °F 80% 30.16 in 10.0 mi Calm Calm - N/A   Clear